Station TIXC1 - Tidal Linkage, Tijuana River Reserve, CA Image indicating link to RSS feed of recent meteorological observations for station TIXC1


Conditions at TIXC1 as of
(2:45 am PDT)
0945 GMT on 09/01/2026:
     

Click on the graph icon in the table below to see a time series plot of the last five days of that observation.

5-day plot - Wind Speed Wind Speed (WSPD): 0.0 kts
5-day plot - Atmospheric Pressure Atmospheric Pressure (PRES):29.97 in
5-day plot - Air Temperature Air Temperature (ATMP): 68.9 °F
5-day plot - Dew Point Dew Point (DEWP): 65.3 °F
5-day plot -  Wind Speed, Wind Gust and Atmospheric Pressure Combined plot of Wind Speed, Gust, and Air Pressure
Previous observations
TIME
(PDT)
5-day plot - Wind Direction
WDIR
 
5-day plot - Wind Speed
WSPD
kts
5-day plot - Wind Gust
GST
kts
5-day plot - Wave Height
WVHT
ft
5-day plot - Dominant Wave Period
DPD
sec
5-day plot - Average Wave Period
APD
sec
5-day plot - Mean Wave Direction
MWD
 
5-day plot - Atmospheric Pressure
PRES
in
5-day plot - Pressure Tendency
PTDY
in
5-day plot - Air Temperature
ATMP
°F
5-day plot - Water Temperature
WTMP
°F
5-day plot - Dew Point
DEWP
°F
5-day plot - Salinity
SAL
psu
5-day plot - Visibility
VIS
nmi
5-day plot - Tide (above MLLW)
TIDE
ft
2026-09-01 02:30 am- 0.0-----29.97- 69.1- 65.5---
2026-09-01 02:15 am- 0.0-----29.97- 69.1- 65.8---
2026-09-01 02:00 am NW 1.9-----29.97+0.00 69.1- 65.8---
2026-09-01 01:45 am NW 2.9-----29.97- 69.3- 66.0---
2026-09-01 01:30 am NW 1.9-----29.97- 69.1- 65.8---
2026-09-01 01:15 am NW 1.9-----29.97- 68.5- 64.9---
2026-09-01 01:00 am NW 1.0-----29.97+0.00 68.4- 64.8---
2026-09-01 12:45 am NW 2.9-----29.97- 68.4- 64.8---
2026-09-01 12:30 am NW 2.9-----29.97- 68.4- 64.8---
2026-09-01 12:15 am NW 2.9-----29.97- 68.5- 65.3---
2026-09-01 12:00 am NW 2.9-----29.97+0.03 68.4- 65.1---
2026-08-31 11:45 pm NW 2.9-----29.97- 68.5- 65.3---
2026-08-31 11:30 pm NW 2.9-----29.97- 68.7- 65.5---
2026-08-31 11:15 pm NW 2.9-----29.97- 68.7- 65.7---
2026-08-31 11:00 pm NW 2.9-----29.97+0.03 68.9- 65.3---
2026-08-31 10:45 pm NW 1.9-----29.97- 68.5- 64.9---
2026-08-31 10:30 pm NW 1.9-----29.97- 68.7- 64.8---
2026-08-31 10:15 pm NW 1.9-----29.97- 68.7- 64.8---
2026-08-31 10:00 pm NW 1.9-----29.97+0.06 68.5- 64.2---
2026-08-31 09:45 pm NW 1.9-----29.94- 68.7- 64.4---
2026-08-31 09:30 pm NW 1.0-----29.94- 68.5- 64.6---
2026-08-31 09:15 pm NW 1.9-----29.94- 68.7- 64.8---
2026-08-31 09:00 pm NW 1.9-----29.94+0.03 68.9- 64.9---
2026-08-31 08:45 pm NW 1.9-----29.94- 69.1- 64.8---
2026-08-31 08:30 pm NW 2.9-----29.94- 69.3- 64.9---
2026-08-31 08:15 pm NW 2.9-----29.94- 69.4- 65.1---
2026-08-31 08:00 pm NW 4.1-----29.94+0.03 69.6- 65.3---
2026-08-31 07:45 pm NW 2.9-----29.91- 69.8- 65.1---
2026-08-31 07:30 pm NW 4.1-----29.91- 70.0- 64.9---
2026-08-31 07:15 pm NW 4.1-----29.91- 70.5- 65.3---
2026-08-31 07:00 pmWNW 4.1-----29.91-0.03 71.4- 65.5---
2026-08-31 06:45 pmWNW 4.1-----29.91- 72.3- 65.7---
2026-08-31 06:30 pmWNW 4.1-----29.91- 73.0- 65.5---
2026-08-31 06:15 pm NW 4.1-----29.91- 73.9- 66.0---
2026-08-31 06:00 pmWNW 5.1-----29.91-0.03 74.1- 66.2---
2026-08-31 05:45 pm NW 5.1-----29.91- 74.7- 66.4---
2026-08-31 05:30 pm NW 5.1-----29.91- 75.2- 66.6---
2026-08-31 05:15 pmWNW 5.1-----29.91- 75.7- 67.1---
2026-08-31 05:00 pmWNW 5.1-----29.91-0.06 75.7- 67.1---
2026-08-31 04:45 pmWNW 5.1-----29.91- 76.1- 67.1---
2026-08-31 03:45 pmWNW 6.0-----29.94- 76.5- 66.9---
2026-08-31 03:30 pmWNW 6.0-----29.94- 76.6- 66.7---
2026-08-31 03:15 pmWNW 6.0-----29.94- 76.6- 67.1---
2026-08-31 03:00 pmWNW 7.0-----29.94-0.03 76.6- 67.5---
2026-08-31 02:45 pmWNW 7.0-----29.94- 76.6- 67.5---
2026-08-31 02:30 pmWNW 6.0-----29.94- 77.0- 67.1---
2026-08-31 02:15 pmWNW 6.0-----29.94- 77.0- 67.1---
2026-08-31 02:00 pmWNW 6.0-----29.97+0.00 76.5- 67.5---
2026-08-31 01:45 pmWNW 6.0-----29.97- 76.6- 66.7---
2026-08-31 01:30 pmWNW 6.0-----29.97- 76.6- 67.1---
2026-08-31 01:15 pmWNW 6.0-----29.97- 76.5- 66.9---
2026-08-31 01:00 pmWNW 6.0-----29.97+0.03 76.3- 66.7---
2026-08-31 12:45 pmWNW 6.0-----29.97- 76.5- 66.9---
2026-08-31 12:30 pmWNW 6.0-----29.97- 76.5- 66.9---
2026-08-31 12:15 pmWNW 6.0-----29.97- 76.6- 67.1---
2026-08-31 12:00 pmWNW 6.0-----29.97+0.03 76.8- 67.3---
2026-08-31 11:45 amWNW 6.0-----29.97- 76.5- 66.9---
2026-08-31 11:30 amWNW 6.0-----29.97- 76.6- 66.7---
2026-08-31 11:15 amWNW 6.0-----29.97- 76.3- 66.7---
2026-08-31 11:00 amWNW 6.0-----29.97+0.03 76.5- 66.9---
2026-08-31 10:45 amWNW 5.1-----29.97- 76.1- 66.6---
2026-08-31 10:30 amWNW 5.1-----29.97- 75.6- 66.6---
2026-08-31 10:15 amWNW 6.0-----29.97- 74.8- 66.2---
2026-08-31 10:00 amWNW 5.1-----29.94+0.03 74.7- 66.0---
2026-08-31 09:45 amWNW 5.1-----29.94- 74.5- 66.2---
2026-08-31 09:30 amWNW 5.1-----29.94- 74.1- 66.2---
2026-08-31 09:15 amWNW 4.1-----29.94- 73.8- 65.8---
2026-08-31 09:00 amWNW 4.1-----29.94+0.03 73.4- 65.8---
2026-08-31 08:45 amWNW 4.1-----29.94- 73.2- 65.7---
2026-08-31 08:30 amWNW 2.9-----29.94- 73.0- 66.4---
2026-08-31 08:15 amWNW 2.9-----29.94- 72.7- 66.0---
2026-08-31 08:00 amWNW 1.9-----29.94+0.03 72.0- 66.0---
2026-08-31 07:45 amWNW 1.9-----29.94- 71.4- 65.8---
2026-08-31 07:30 amWNW 1.9-----29.94- 71.4- 66.0---
2026-08-31 07:15 amWNW 1.9-----29.94- 70.3- 65.7---
2026-08-31 07:00 amWNW 1.9-----29.91+0.00 70.2- 65.5---
2026-08-31 06:45 amWNW 1.9-----29.91- 70.0- 65.3---
2026-08-31 06:30 am NW 1.9-----29.91- 69.8- 65.5---
2026-08-31 06:15 am NW 1.9-----29.91- 69.8- 65.1---
2026-08-31 06:00 am NW 1.0-----29.91+0.00 70.2- 65.5---
2026-08-31 05:45 am NW 1.0-----29.91- 70.0- 65.7---
2026-08-31 05:30 am NW 1.0-----29.91- 70.0- 65.7---
2026-08-31 05:15 am NW 1.9-----29.91- 70.0- 65.7---
2026-08-31 05:00 am NW 1.9-----29.91+0.00 70.0- 65.7---
2026-08-31 04:45 am W 1.0-----29.91- 70.5- 65.8---
2026-08-31 04:30 am- 0.0-----29.91- 70.5- 65.5---
2026-08-31 04:15 am- 0.0-----29.91- 70.3- 66.0---
2026-08-31 04:00 am- 0.0-----29.91+0.00 70.5- 66.2---